SCP
-0 -0 -0 -0 -0 -0 -0 -0 -0 -0 -0 -0 -0 -0 -0 -0 -0 0 0 0 0 0 0 0 0 -0 -0 -0 -0 -0 -0 -0 -0 -0 -0 -0 -0 -0 -0 -0 -0 -0 -0
0 -0 0 0 -0 -0 -0 -0 -0 -0 -0 -0 -0 -0 -0 -0 -0 -0 -0 -0 -0 -0 -0 -0 -0 -0 -0 -0 -0 -0 -0 -0 -0 -0 -0 -0 -0 -0 -0 -0 -0 -0 -0
-0 -0 -0 -0 -0 -0 -0 -0 -0 -0 -0 -0 -0 -0 -0 -0 -0 -0 -0 -0 -0 -0 -0 -0 -0 -0 -0 -0 -0 -0 -0 -0 -0 -0 -0 -0 -0 -0 -0 -0 -0 -0 -0
-0 -0 -0 -0 -0 -0 -0 -0 -0 -0 -0 -0 -0 -0 -0 -0 -0 -0 -0 -0 -0 -0 -0 -0 -0 -0 -0 -0 -0 -0 -0 -0 -0 -0 0 0 -0 -0 -0 -0 -0 -0 -0
-0 -0 -0 -0 -0 -0 -0 -0 -0 -0 -0 -0 -0 -0 -0 -0 -0 -0 -0 -0 -0 -0 -0 -0 -0 -0 -0 -0 -0 -0 -0 -0 -0 -0 -0 -0 -0 -0 -0 -0 -0 -0 -0
-0 -0 -0 -0 -0 -0 -0 -0 -0 -0 -0 -0 -0 -0 -0 -0 -0 -0 -0 -0 -0 -0 -0 -0 -0 -0 -0 -0 -0 -0 -0 -0 -0 0 0 0 -0 -0 -0 -0 -0 -0 -0
-0 -0 -0 -0 -0 -0 -0 -0 -0 -0 -0 -0 -0 -0 -0 -0 -0 -0 -0 -0 -0 -0 -0 -0 -0 -0 -0 -0 -0 -0 -0 -0 0 0 0 0 0 -0 -0 -0 -0 -0 -0
-0 -0 -0 -0 -0 -0 -0 -0 -0 -0 -0 -0 -0 -0 -0 -0 -0 -0 -0 -0 -0 -0 -0 -0 -0 -0 -0 -0 -0 -0 0 0 0 0 0 0 0 0 0 0 -0 -0 -0
0 -0 -0 -0 -0 -0 -0 -0 -0 -0 -0 -0 -0 -0 -0 -0 -0 -0 -0 -0 -0 -0 -0 -0 -0 -0 -0 -0 -0 -0 -0 0 0 0 0 0 0 -0 -0 -0 -0 -0 -0
-0 0 0 0 -0 0 0 -0 -0 -0 -0 -0 -0 -0 -0 -0 -0 -0 0 -0 -0 -0 -0 -0 -0 -0 -0 -0 -0 -0 0 0 0 0 0 0 -0 -0 -0 -0 -0 -0 -0
0 0 0 0 0 0 0 0 -0 -0 -0 0 0 0 -0 0 0 0 0 0 -0 -0 -0 -0 -0 -0 -0 -0 0 0 0 0 0 0 0 0 0 0 -0 -0 -0 0 0
0 0 0 0 0 0 0 0 0 0 0 0 0 0 0 0 0 0 0 -0 -0 -0 -0 -0 -0 -0 0 0 0 0 0 0 0 0 0 0 0 -0 -0 0 0 0 0
0 0 0 0 0 0 0 0 0 0 0 0 0 0 0 0 0 0 0 0 0 0 0 0 0 0 0 0 0 0 0 0 0 0 0 0 -0 -0 0 0 0 0 0
0 0 0 0 0 0 0 0 0 0 0 0 0 0 0 0 0 0 0 0 0 0 0 0 0 0 0 0 0 0 0 0 0 0 0 0 0 0 0 0 0 0 0
0 0 0 0 0 0 0 0 0 0 0 0 0 0 0 0 0 0 0 0 0 0 0 0 0 0 0 0 0 0 0 0 0 0 0 0 0 0 0 0 0 0 0
0 0 0 0 0 0 0 0 0 0 0 0 0 0 0 0 0 0 0 0 0 0 0 0 0 0 0 0 0 0 0 0 0 0 0 0 0 0 0 0 0 0 0
0 0 0 0 0 0 0 0 0 0 0 0 0 0 0 0 0 0 0 0 0 0 0 0 0 0 0 0 0 0 0 0 0 0 0 0 0 0 0 0 0 0 0
0 0 0 0 0 0 0 0 0 0 0 0 0 0 0 0 0 0 0 0 0 0 0 0 0 0 0 0 0 0 0 0 0 0 0 0 0 0 0 0 0 0 0
0 0 0 0 0 0 0 0 0 0 0 0 0 0 0 0 0 0 0 0 0 0 0 0 0 0 0 0 0 0 0 0 0 0 0 0 0 0 0 0 0 0 0
0 0 0 0 0 0 0 0 0 0 0 0 0 0 0 0 0 0 0 0 0 0 0 0 0 0 0 0 0 0 0 0 0 0 0 0 0 0 0 0 0 0 0
0 0 0 0 0 0 0 0 0 0 0 0 0 0 0 0 0 0 0 0 0 0 0 0 0 0 0 0 0 0 0 0 0 0 0 0 0 0 0 0 0 0 0
0 0 0 0 0 0 0 0 0 0 0 0 0 0 0 0 0 0 0 0 0 0 0 0 0 0 0 0 0 0 0 0 0 0 0 0 0 0 0 0 0 0 -0
0 0 0 0 0 0 0 0 0 0 0 0 0 0 0 0 0 0 0 0 0 0 0 0 0 0 0 0 0 0 0 0 0 0 0 0 0 0 0 0 0 0 0
0 0 0 0 0 0 0 0 0 0 0 0 0 0 0 0 0 0 0 0 0 0 0 0 0 0 0 0 0 0 0 0 0 0 0 0 0 0 0 0 0 0 0
0 0 0 0 0 0 0 0 0 0 0 0 0 0 0 0 0 0 0 0 0 0 0 0 0 0 0 0 0 0 0 0 0 0 0 0 0 0 0 0 0 0 0
0 0 0 0 0 0 0 0 0 0 0 0 0 0 0 0 0 0 0 0 0 0 0 0 0 0 0 0 0 0 0 0 0 0 0 0 0 0 0 0 0 0 0
Wind_Speed_500mb
33 30 30 28 25 24 22 20 18 19 18 21 23 24 23 23 23 26 25 24 21 22 31 32 35 35 30 31 31 32 33 31 30 27 26 25 27 30 37 43 42 37 32
34 32 29 28 24 24 20 18 18 18 17 19 23 24 23 22 25 26 25 24 24 26 31 31 36 35 35 35 34 33 34 35 33 28 25 22 23 23 21 26 37 41 41
33 32 30 28 25 22 19 17 16 15 17 18 21 24 25 25 25 24 24 24 25 26 24 30 29 28 31 36 36 37 36 36 33 31 28 28 27 25 22 20 20 29 36
35 32 30 28 25 21 19 17 16 11 14 17 20 23 25 26 26 25 24 25 26 28 24 34 30 27 30 32 32 33 35 35 33 30 32 34 33 29 27 25 24 19 21
38 33 31 28 24 21 20 18 16 9 13 15 19 21 24 24 25 25 25 26 27 26 26 31 28 24 26 28 29 31 31 32 31 31 34 36 38 33 29 28 27 24 22
38 34 30 27 24 21 20 18 16 13 11 10 14 18 20 22 24 24 25 26 25 26 25 26 24 22 23 25 26 27 29 30 29 31 35 37 39 38 33 29 28 27 24
39 34 31 27 23 20 17 16 15 14 11 10 10 13 16 18 20 21 22 22 23 23 23 22 21 20 21 23 23 24 24 26 27 30 33 40 43 40 39 35 33 31 30
37 32 30 28 25 21 19 17 16 15 11 10 9 10 12 15 19 21 22 23 24 23 22 23 21 20 19 20 21 22 22 25 24 27 34 43 42 43 43 44 43 40 39
29 26 25 27 25 19 19 19 18 17 12 10 8 10 11 14 18 20 21 22 23 24 25 24 24 22 20 19 18 18 19 21 21 27 30 34 35 41 41 40 42 47 39
38 33 31 27 25 21 15 16 19 18 16 14 13 12 10 11 15 18 24 30 31 27 25 25 24 25 24 20 17 17 18 19 24 28 35 36 37 42 38 39 38 40 37
44 42 37 32 24 24 23 22 16 16 15 19 20 14 6 7 12 15 16 20 20 25 25 22 24 25 21 20 17 14 14 21 24 32 39 44 44 44 45 48 50 44 41
49 48 44 34 32 27 26 24 20 21 23 21 22 18 11 6 4 3 5 5 12 17 20 18 17 21 16 15 12 10 13 18 20 35 48 48 47 38 41 39 45 47 41
48 49 48 39 39 35 30 29 28 31 30 25 23 23 19 16 11 9 3 5 2 7 9 11 13 15 14 12 6 9 14 15 20 32 52 52 42 36 42 46 48 42 41
53 51 52 45 45 45 39 35 37 37 39 32 28 26 25 22 20 16 12 11 11 7 3 6 8 12 12 10 11 14 17 17 22 28 26 16 18 27 38 46 47 46 48
57 56 52 52 45 49 49 44 42 39 43 38 32 32 31 26 25 24 20 19 16 12 5 3 4 8 9 11 17 18 23 25 24 22 24 28 32 33 35 38 40 40 37
57 59 57 56 53 52 49 47 46 44 46 45 39 33 32 27 30 31 26 23 25 21 12 3 6 9 12 17 24 25 30 33 35 37 35 34 31 29 27 28 29 31 39
60 59 58 56 55 54 53 47 43 44 40 42 43 40 37 34 33 29 32 26 33 23 15 8 14 14 18 25 31 37 40 40 37 34 31 30 29 28 28 30 31 31 30
61 61 58 56 54 55 54 49 52 45 46 49 48 46 43 36 48 37 38 33 39 24 19 15 20 14 24 30 40 41 37 33 30 27 25 25 27 29 29 32 30 29 30
65 63 62 60 58 59 58 53 54 55 56 62 54 52 45 44 48 57 40 36 37 34 24 18 18 17 29 38 40 39 33 26 22 22 22 25 29 31 33 33 33 34 38
70 68 66 63 61 61 61 60 56 58 58 56 55 58 51 50 54 59 41 44 30 22 31 29 22 30 32 40 43 38 30 22 18 18 22 26 29 31 33 33 33 36 38
72 72 70 66 65 62 66 68 69 62 64 61 59 64 50 55 55 52 34 45 40 37 33 38 34 34 43 43 41 38 29 20 13 16 22 27 28 29 30 33 37 39 43
76 73 70 66 63 59 60 61 66 63 65 62 58 61 59 56 54 57 59 55 40 42 42 51 35 38 48 48 39 30 21 14 11 12 18 22 27 30 33 38 40 44 47
81 78 72 65 59 56 55 57 63 66 66 65 68 55 48 47 46 47 52 38 38 42 45 48 37 39 49 50 38 19 15 13 24 13 13 20 26 29 34 38 42 47 51
80 77 71 63 59 59 57 58 61 64 66 63 62 64 51 42 54 59 46 38 42 45 47 45 43 40 40 41 35 31 19 19 15 18 10 18 26 30 36 41 46 51 55
67 73 71 66 63 60 59 58 57 56 59 55 57 56 57 58 59 54 47 49 44 45 46 48 47 44 39 38 32 32 27 22 20 19 20 14 21 28 35 41 47 51 55
56 67 70 68 64 58 54 54 59 61 60 60 62 62 54 65 55 53 52 51 54 52 54 51 46 43 40 35 34 29 23 19 19 17 24 21 24 27 36 42 46 49 52
Wind_Direction_500mb
165 162 163 159 153 144 133 129 120 112 99 82 67 57 48 50 61 68 68 70 75 76 79 83 72 79 71 70 73 73 71 71 75 78 78 79 81 80 76 72 70 67 68
166 161 160 160 157 151 137 129 120 122 101 82 72 65 64 64 65 63 66 68 68 78 86 77 86 83 74 74 75 72 69 68 69 71 75 80 80 85 86 85 78 69 66
171 165 160 160 161 155 144 137 127 122 111 92 72 65 67 67 68 66 68 70 72 75 78 72 87 76 70 68 68 70 69 70 70 72 74 74 74 75 77 76 84 89 76
175 171 163 163 164 161 153 145 136 131 109 94 84 77 75 73 73 73 72 71 71 78 83 84 82 77 74 70 64 65 67 69 69 69 72 74 73 72 72 73 70 80 98
174 174 170 168 169 168 161 155 151 136 103 95 83 77 74 74 75 77 76 74 73 78 75 87 90 86 77 73 67 68 70 70 71 73 74 73 70 69 71 71 69 66 64
173 176 174 175 176 175 170 164 162 156 120 109 86 78 74 74 75 73 71 73 78 79 81 82 85 79 72 69 67 68 68 69 66 68 71 70 67 64 66 70 70 68 71
172 176 178 181 182 182 180 172 171 171 153 143 107 89 83 79 73 73 78 80 77 75 77 84 82 79 75 73 73 73 73 71 68 71 70 70 66 65 62 60 62 62 61
173 175 181 185 187 189 190 189 185 189 180 157 133 111 91 74 66 65 68 74 78 78 76 75 72 71 72 71 71 70 70 71 71 72 74 75 69 67 61 61 56 56 56
172 187 188 187 185 184 197 195 191 197 194 181 160 130 109 89 74 64 61 62 66 68 66 65 63 60 60 60 64 71 74 77 80 80 81 77 77 71 74 74 70 59 56
175 189 194 207 202 195 207 215 204 202 199 192 174 159 134 94 70 71 78 78 76 68 59 51 53 53 52 53 56 64 74 82 82 81 75 75 75 68 64 68 75 78 70
182 188 195 206 201 202 215 223 232 218 208 205 200 204 178 91 75 72 75 59 69 71 67 55 43 35 40 43 51 67 87 94 97 85 72 68 67 69 72 73 67 61 57
187 188 195 200 202 205 219 229 232 226 227 222 217 208 231 190 159 82 42 60 84 79 66 61 39 28 37 36 50 82 102 112 113 98 92 88 81 84 74 63 63 60 62
192 193 193 197 202 208 221 224 231 228 225 225 227 221 215 214 210 208 244 266 145 98 89 66 45 25 21 21 53 110 118 125 120 115 109 98 96 89 63 59 62 67 57
203 204 202 201 205 206 217 225 232 227 224 221 223 224 227 224 223 226 234 250 218 196 137 75 50 27 20 38 87 110 117 118 121 126 124 87 71 63 66 62 62 57 55
211 211 214 216 215 212 213 224 233 231 227 225 230 226 223 226 229 229 228 246 224 215 184 145 65 45 50 88 107 118 121 118 114 100 97 88 78 74 69 66 60 55 49
215 216 218 221 224 221 220 226 227 233 230 224 230 233 238 231 239 232 237 238 227 216 207 199 114 94 108 113 116 117 115 112 107 101 95 87 78 70 59 51 44 41 47
220 221 223 226 228 228 224 220 225 228 233 233 229 230 246 232 241 241 251 238 234 220 200 178 140 125 131 127 120 118 116 110 105 97 88 76 66 54 43 39 38 35 28
226 228 229 231 230 229 221 222 225 229 234 232 232 239 241 241 245 242 245 246 233 195 193 183 151 149 143 137 129 125 121 116 103 91 79 66 54 47 39 38 32 20 14
230 231 232 233 234 233 234 221 225 228 227 237 233 233 236 250 242 256 266 242 221 193 187 179 160 181 159 148 141 135 129 118 101 83 70 58 48 41 36 32 24 15 12
231 232 234 235 235 234 231 225 226 226 229 227 225 243 238 241 240 231 246 252 204 207 191 180 195 176 168 160 151 143 134 121 99 81 62 47 40 34 30 24 18 15 12
231 231 233 236 239 237 235 229 223 224 225 225 239 221 234 231 249 256 242 245 204 205 196 185 182 185 168 168 162 150 140 125 105 78 54 38 31 28 24 19 16 13 10
235 235 235 237 238 237 231 227 221 219 222 221 227 241 232 246 238 234 252 209 208 196 190 189 199 197 181 175 171 158 151 146 134 90 47 33 31 29 23 21 18 14 10
234 234 234 236 235 231 226 221 220 218 222 226 226 233 233 225 235 228 206 198 200 192 189 190 200 206 190 183 183 181 169 177 158 130 60 40 36 33 30 27 22 19 16
235 231 232 234 232 228 224 222 223 226 223 222 231 230 226 232 210 206 199 204 195 192 189 190 196 198 199 200 195 205 209 172 168 159 97 48 40 37 35 31 29 25 20
238 231 230 230 228 225 223 220 224 222 222 221 221 235 231 214 216 211 208 198 194 193 185 194 193 193 198 203 193 176 164 159 152 153 125 84 57 49 43 39 34 28 24
233 228 227 227 228 224 219 214 219 222 226 229 229 218 230 208 206 205 198 194 192 193 192 191 188 184 184 187 182 178 174 167 144 133 116 91 70 64 53 44 36 31 26
Wind_Speed_850mb
33 30 30 28 25 24 22 20 18 19 18 21 23 24 23 23 23 26 25 24 21 22 31 32 35 35 30 31 31 32 33 31 30 27 26 25 27 30 37 43 42 37 32
34 32 29 28 24 24 20 18 18 18 17 19 23 24 23 22 25 26 25 24 24 26 31 31 36 35 35 35 34 33 34 35 33 28 25 22 23 23 21 26 37 41 41
33 32 30 28 25 22 19 17 16 15 17 18 21 24 25 25 25 24 24 24 25 26 24 30 29 28 31 36 36 37 36 36 33 31 28 28 27 25 22 20 20 29 36
35 32 30 28 25 21 19 17 16 11 14 17 20 23 25 26 26 25 24 25 26 28 24 34 30 27 30 32 32 33 35 35 33 30 32 34 33 29 27 25 24 19 21
38 33 31 28 24 21 20 18 16 9 13 15 19 21 24 24 25 25 25 26 27 26 26 31 28 24 26 28 29 31 31 32 31 31 34 36 38 33 29 28 27 24 22
38 34 30 27 24 21 20 18 16 13 11 10 14 18 20 22 24 24 25 26 25 26 25 26 24 22 23 25 26 27 29 30 29 31 35 37 39 38 33 29 28 27 24
39 34 31 27 23 20 17 16 15 14 11 10 10 13 16 18 20 21 22 22 23 23 23 22 21 20 21 23 23 24 24 26 27 30 33 40 43 40 39 35 33 31 30
37 32 30 28 25 21 19 17 16 15 11 10 9 10 12 15 19 21 22 23 24 23 22 23 21 20 19 20 21 22 22 25 24 27 34 43 42 43 43 44 43 40 39
29 26 25 27 25 19 19 19 18 17 12 10 8 10 11 14 18 20 21 22 23 24 25 24 24 22 20 19 18 18 19 21 21 27 30 34 35 41 41 40 42 47 39
38 33 31 27 25 21 15 16 19 18 16 14 13 12 10 11 15 18 24 30 31 27 25 25 24 25 24 20 17 17 18 19 24 28 35 36 37 42 38 39 38 40 37
44 42 37 32 24 24 23 22 16 16 15 19 20 14 6 7 12 15 16 20 20 25 25 22 24 25 21 20 17 14 14 21 24 32 39 44 44 44 45 48 50 44 41
49 48 44 34 32 27 26 24 20 21 23 21 22 18 11 6 4 3 5 5 12 17 20 18 17 21 16 15 12 10 13 18 20 35 48 48 47 38 41 39 45 47 41
48 49 48 39 39 35 30 29 28 31 30 25 23 23 19 16 11 9 3 5 2 7 9 11 13 15 14 12 6 9 14 15 20 32 52 52 42 36 42 46 48 42 41
53 51 52 45 45 45 39 35 37 37 39 32 28 26 25 22 20 16 12 11 11 7 3 6 8 12 12 10 11 14 17 17 22 28 26 16 18 27 38 46 47 46 48
57 56 52 52 45 49 49 44 42 39 43 38 32 32 31 26 25 24 20 19 16 12 5 3 4 8 9 11 17 18 23 25 24 22 24 28 32 33 35 38 40 40 37
57 59 57 56 53 52 49 47 46 44 46 45 39 33 32 27 30 31 26 23 25 21 12 3 6 9 12 17 24 25 30 33 35 37 35 34 31 29 27 28 29 31 39
60 59 58 56 55 54 53 47 43 44 40 42 43 40 37 34 33 29 32 26 33 23 15 8 14 14 18 25 31 37 40 40 37 34 31 30 29 28 28 30 31 31 30
61 61 58 56 54 55 54 49 52 45 46 49 48 46 43 36 48 37 38 33 39 24 19 15 20 14 24 30 40 41 37 33 30 27 25 25 27 29 29 32 30 29 30
65 63 62 60 58 59 58 53 54 55 56 62 54 52 45 44 48 57 40 36 37 34 24 18 18 17 29 38 40 39 33 26 22 22 22 25 29 31 33 33 33 34 38
70 68 66 63 61 61 61 60 56 58 58 56 55 58 51 50 54 59 41 44 30 22 31 29 22 30 32 40 43 38 30 22 18 18 22 26 29 31 33 33 33 36 38
72 72 70 66 65 62 66 68 69 62 64 61 59 64 50 55 55 52 34 45 40 37 33 38 34 34 43 43 41 38 29 20 13 16 22 27 28 29 30 33 37 39 43
76 73 70 66 63 59 60 61 66 63 65 62 58 61 59 56 54 57 59 55 40 42 42 51 35 38 48 48 39 30 21 14 11 12 18 22 27 30 33 38 40 44 47
81 78 72 65 59 56 55 57 63 66 66 65 68 55 48 47 46 47 52 38 38 42 45 48 37 39 49 50 38 19 15 13 24 13 13 20 26 29 34 38 42 47 51
80 77 71 63 59 59 57 58 61 64 66 63 62 64 51 42 54 59 46 38 42 45 47 45 43 40 40 41 35 31 19 19 15 18 10 18 26 30 36 41 46 51 55
67 73 71 66 63 60 59 58 57 56 59 55 57 56 57 58 59 54 47 49 44 45 46 48 47 44 39 38 32 32 27 22 20 19 20 14 21 28 35 41 47 51 55
56 67 70 68 64 58 54 54 59 61 60 60 62 62 54 65 55 53 52 51 54 52 54 51 46 43 40 35 34 29 23 19 19 17 24 21 24 27 36 42 46 49 52
Wind_Direction_850mb
165 162 163 159 153 144 133 129 120 112 99 82 67 57 48 50 61 68 68 70 75 76 79 83 72 79 71 70 73 73 71 71 75 78 78 79 81 80 76 72 70 67 68
166 161 160 160 157 151 137 129 120 122 101 82 72 65 64 64 65 63 66 68 68 78 86 77 86 83 74 74 75 72 69 68 69 71 75 80 80 85 86 85 78 69 66
171 165 160 160 161 155 144 137 127 122 111 92 72 65 67 67 68 66 68 70 72 75 78 72 87 76 70 68 68 70 69 70 70 72 74 74 74 75 77 76 84 89 76
175 171 163 163 164 161 153 145 136 131 109 94 84 77 75 73 73 73 72 71 71 78 83 84 82 77 74 70 64 65 67 69 69 69 72 74 73 72 72 73 70 80 98
174 174 170 168 169 168 161 155 151 136 103 95 83 77 74 74 75 77 76 74 73 78 75 87 90 86 77 73 67 68 70 70 71 73 74 73 70 69 71 71 69 66 64
173 176 174 175 176 175 170 164 162 156 120 109 86 78 74 74 75 73 71 73 78 79 81 82 85 79 72 69 67 68 68 69 66 68 71 70 67 64 66 70 70 68 71
172 176 178 181 182 182 180 172 171 171 153 143 107 89 83 79 73 73 78 80 77 75 77 84 82 79 75 73 73 73 73 71 68 71 70 70 66 65 62 60 62 62 61
173 175 181 185 187 189 190 189 185 189 180 157 133 111 91 74 66 65 68 74 78 78 76 75 72 71 72 71 71 70 70 71 71 72 74 75 69 67 61 61 56 56 56
172 187 188 187 185 184 197 195 191 197 194 181 160 130 109 89 74 64 61 62 66 68 66 65 63 60 60 60 64 71 74 77 80 80 81 77 77 71 74 74 70 59 56
175 189 194 207 202 195 207 215 204 202 199 192 174 159 134 94 70 71 78 78 76 68 59 51 53 53 52 53 56 64 74 82 82 81 75 75 75 68 64 68 75 78 70
182 188 195 206 201 202 215 223 232 218 208 205 200 204 178 91 75 72 75 59 69 71 67 55 43 35 40 43 51 67 87 94 97 85 72 68 67 69 72 73 67 61 57
187 188 195 200 202 205 219 229 232 226 227 222 217 208 231 190 159 82 42 60 84 79 66 61 39 28 37 36 50 82 102 112 113 98 92 88 81 84 74 63 63 60 62
192 193 193 197 202 208 221 224 231 228 225 225 227 221 215 214 210 208 244 266 145 98 89 66 45 25 21 21 53 110 118 125 120 115 109 98 96 89 63 59 62 67 57
203 204 202 201 205 206 217 225 232 227 224 221 223 224 227 224 223 226 234 250 218 196 137 75 50 27 20 38 87 110 117 118 121 126 124 87 71 63 66 62 62 57 55
211 211 214 216 215 212 213 224 233 231 227 225 230 226 223 226 229 229 228 246 224 215 184 145 65 45 50 88 107 118 121 118 114 100 97 88 78 74 69 66 60 55 49
215 216 218 221 224 221 220 226 227 233 230 224 230 233 238 231 239 232 237 238 227 216 207 199 114 94 108 113 116 117 115 112 107 101 95 87 78 70 59 51 44 41 47
220 221 223 226 228 228 224 220 225 228 233 233 229 230 246 232 241 241 251 238 234 220 200 178 140 125 131 127 120 118 116 110 105 97 88 76 66 54 43 39 38 35 28
226 228 229 231 230 229 221 222 225 229 234 232 232 239 241 241 245 242 245 246 233 195 193 183 151 149 143 137 129 125 121 116 103 91 79 66 54 47 39 38 32 20 14
230 231 232 233 234 233 234 221 225 228 227 237 233 233 236 250 242 256 266 242 221 193 187 179 160 181 159 148 141 135 129 118 101 83 70 58 48 41 36 32 24 15 12
231 232 234 235 235 234 231 225 226 226 229 227 225 243 238 241 240 231 246 252 204 207 191 180 195 176 168 160 151 143 134 121 99 81 62 47 40 34 30 24 18 15 12
231 231 233 236 239 237 235 229 223 224 225 225 239 221 234 231 249 256 242 245 204 205 196 185 182 185 168 168 162 150 140 125 105 78 54 38 31 28 24 19 16 13 10
235 235 235 237 238 237 231 227 221 219 222 221 227 241 232 246 238 234 252 209 208 196 190 189 199 197 181 175 171 158 151 146 134 90 47 33 31 29 23 21 18 14 10
234 234 234 236 235 231 226 221 220 218 222 226 226 233 233 225 235 228 206 198 200 192 189 190 200 206 190 183 183 181 169 177 158 130 60 40 36 33 30 27 22 19 16
235 231 232 234 232 228 224 222 223 226 223 222 231 230 226 232 210 206 199 204 195 192 189 190 196 198 199 200 195 205 209 172 168 159 97 48 40 37 35 31 29 25 20
238 231 230 230 228 225 223 220 224 222 222 221 221 235 231 214 216 211 208 198 194 193 185 194 193 193 198 203 193 176 164 159 152 153 125 84 57 49 43 39 34 28 24
233 228 227 227 228 224 219 214 219 222 226 229 229 218 230 208 206 205 198 194 192 193 192 191 188 184 184 187 182 178 174 167 144 133 116 91 70 64 53 44 36 31 26